Location: Newark
(52.3735°N, 16.9806°E)
Time: 23:18:24
(UTC+00:00)

N. Korean satellite - Visible Passes

Search period start: 25 September 2020 00:00
Search period end: 05 October 2020 00:00
Orbit: 455 x 503 km, 97.2° (Epoch: 25 September)

Date Brightness Start Highest point End Pass type
(mag) Time Alt. Az. Time Alt. Az. Time Alt. Az.
25 Sep 9.5 03:45:24 10° NE 03:48:21 23° E 03:51:17 10° SSE visible
26 Sep 10.1 03:20:23 10° ENE 03:22:05 13° E 03:23:46 10° ESE visible
28 Sep 8.7 04:00:25 10° NNE 04:03:45 32° E 04:06:59 10° SSE visible
29 Sep 9.8 03:34:57 10° NE 03:37:30 18° E 03:40:01 10° SE visible
01 Oct 7.8 04:15:31 10° NNE 04:19:02 47° E 04:22:29 10° S visible
02 Oct 9.2 03:49:49 10° NE 03:52:52 25° E 03:55:51 10° SSE visible
03 Oct 9.9 03:24:38 10° NE 03:26:34 14° E 03:28:30 10° ESE visible
